FW7194 Weather Reports


Display with metric or nautical units.
time (UTC)temp
F
wind
direction
speed
MPH
gust
MPH
rain 1hr
in
rain 24hr
in
rain mn
in
humidity
%
barometer
mb
20260906083344 75 234 0.0 0.0 0.00 0.00 0.00 92 1010.2
20260906082844 75 233 0.0 0.0 0.00 0.00 0.00 92 1010.0
20260906082338 76 233 0.0 0.0 0.00 0.00 0.00 92 1010.1
20260906081835 76 239 0.0 0.0 0.00 0.00 0.00 92 1010.1
20260906081330 76 241 0.0 0.0 0.00 0.00 0.00 92 1009.9
20260906080826 76 208 0.0 0.0 0.00 0.00 0.00 92 1010.1
20260906080322 76 207 0.0 0.0 0.00 0.00 0.00 92 1010.3
20260906075821 76 189 0.0 0.0 0.00 0.00 0.00 92 1010.3
20260906075316 76 185 0.0 1.0 0.00 0.00 0.00 92 1010.4
20260906074811 76 15 0.0 1.0 0.00 0.00 0.00 92 1010.2
20260906074311 76 14 0.0 0.0 0.00 0.00 0.00 92 1010.1
20260906073810 77 15 0.0 0.0 0.00 0.00 0.00 92 1010.1
20260906073305 77 16 0.0 0.0 0.00 0.00 0.00 92 1010.2
20260906072802 77 16 0.0 0.0 0.00 0.00 0.00 92 1010.1
20260906072257 77 16 0.0 0.0 0.00 0.00 0.00 92 1010.2
20260906071753 77 16 0.0 0.0 0.00 0.00 0.00 92 1010.2
20260906071252 77 16 0.0 0.0 0.00 0.00 0.00 92 1010.2
20260906070749 77 16 0.0 0.0 0.00 0.00 0.00 92 1010.4
20260906070244 78 17 0.0 0.0 0.00 0.00 0.00 91 1010.7
20260906065744 78 16 0.0 0.0 0.00 0.00 0.00 91 1010.9
20260906065239 78 16 0.0 0.0 0.00 0.00 0.00 91 1011.0
20260906064735 78 16 0.0 0.0 0.00 0.00 0.00 91 1011.0
20260906064230 78 16 0.0 0.0 0.00 0.00 0.00 91 1010.8
20260906063725 78 16 0.0 0.0 0.00 0.00 0.00 91 1010.7
20260906063221 78 16 0.0 0.0 0.00 0.00 0.00 91 1010.7
20260906062716 79 16 0.0 0.0 0.00 0.00 0.00 91 1010.7
20260906062215 79 16 0.0 0.0 0.00 0.00 0.00 91 1010.7
20260906061711 79 16 0.0 0.0 0.00 0.00 0.00 91 1010.9
20260906061207 79 16 0.0 0.0 0.00 0.00 0.00 91 1011.0
20260906060657 79 16 0.0 0.0 0.00 0.00 0.00 91 1011.1
20260906060154 79 16 0.0 0.0 0.00 0.00 0.00 91 1011.0
20260906055649 80 17 0.0 0.0 0.00 0.00 0.00 91 1010.8
20260906055144 80 17 0.0 0.0 0.00 0.00 0.00 91 1010.9
20260906054640 80 17 0.0 0.0 0.00 0.00 0.00 91 1010.9
20260906054134 80 17 0.0 0.0 0.00 0.00 0.00 91 1010.9
20260906053631 80 17 0.0 0.0 0.00 0.00 0.00 91 1011.2
20260906053131 80 17 0.0 0.0 0.00 0.00 0.00 91 1011.2
20260906052627 80 17 0.0 0.0 0.00 0.00 0.00 91 1011.2
20260906052124 81 17 0.0 0.0 0.00 0.00 0.00 91 1011.0
20260906051620 81 17 0.0 0.0 0.00 0.00 0.00 91 1011.0
20260906051114 81 17 0.0 0.0 0.00 0.00 0.00 91 1011.1
20260906050610 81 17 0.0 0.0 0.00 0.00 0.00 91 1011.1
20260906050105 81 17 0.0 0.0 0.00 0.00 0.00 91 1011.2
20260906045603 81 17 0.0 0.0 0.00 0.00 0.00 91 1011.1
20260906045059 81 15 0.0 0.0 0.00 0.00 0.00 91 1011.3
20260906044554 81 16 0.0 0.0 0.00 0.00 0.00 91 1011.2
20260906044049 82 7 0.0 1.0 0.00 0.00 0.00 91 1011.4
20260906043545 82 120 1.0 1.0 0.00 0.00 0.00 91 1011.5
20260906043041 82 226 0.0 0.0 0.00 0.00 0.00 91 1011.5
20260906042540 82 17 0.0 1.0 0.00 0.00 0.00 91 1011.7
20260906042034 82 83 0.0 2.0 0.00 0.00 0.00 91 1011.7
20260906041531 82 226 0.0 0.0 0.00 0.00 0.00 91 1011.6
20260906041031 82 226 0.0 0.0 0.00 0.00 0.00 91 1011.8
20260906040520 82 191 0.0 0.0 0.00 0.00 0.00 91 1011.7
20260906040016 82 227 0.0 0.0 0.00 0.00 0.00 91 1011.7
20260906035511 82 208 0.0 0.0 0.00 0.00 0.00 91 1011.7
20260906035007 82 219 0.0 0.0 0.00 0.00 0.00 90 1011.7
20260906034506 82 229 0.0 0.0 0.00 0.00 0.00 90 1011.7
20260906033956 82 228 0.0 0.0 0.00 0.00 0.00 90 1011.7
20260906033456 82 207 0.0 0.0 0.00 0.00 0.00 90 1011.7
20260906032951 82 227 0.0 0.0 0.00 0.00 0.00 90 1011.6
20260906032449 82 237 0.0 0.0 0.00 0.00 0.00 90 1011.6
20260906031948 82 245 0.0 0.0 0.00 0.00 0.00 90 1011.6
20260906031443 82 216 2.0 2.0 0.00 0.00 0.00 90 1011.3
20260906030939 82 266 0.0 0.0 0.00 0.00 0.00 90 1011.5
20260906030434 82 267 1.0 1.0 0.00 0.00 0.00 90 1011.6
20260906025934 82 235 0.0 1.0 0.00 0.00 0.00 90 1011.6
20260906025428 82 148 1.0 3.0 0.00 0.00 0.00 90 1011.4
20260906024927 82 296 1.0 2.0 0.00 0.00 0.00 89 1011.4
20260906024426 82 227 1.0 3.0 0.00 0.00 0.00 89 1011.4
20260906023922 82 230 0.0 0.0 0.00 0.00 0.00 89 1011.2
20260906023418 82 218 1.0 5.0 0.00 0.00 0.00 89 1011.0
20260906022918 82 224 0.0 3.0 0.00 0.00 0.00 89 1011.0
20260906022413 83 212 2.0 3.0 0.00 0.00 0.00 89 1011.0
20260906021909 82 209 3.0 3.0 0.00 0.00 0.00 89 1010.7
20260906021408 82 217 2.0 3.0 0.00 0.00 0.00 89 1010.6
20260906020903 83 221 4.0 6.0 0.00 0.00 0.00 89 1010.3
20260906020357 82 197 4.0 5.0 0.00 0.00 0.00 88 1010.9
20260906015852 83 182 0.0 0.0 0.00 0.00 0.00 88 1010.9
20260906015351 83 254 0.0 0.0 0.00 0.00 0.00 88 1011.1
20260906014850 83 229 0.0 0.0 0.00 0.00 0.00 88 1010.8
20260906014345 83 332 1.0 1.0 0.00 0.00 0.00 88 1010.4
20260906013841 83 223 0.0 3.0 0.00 0.00 0.00 88 1009.9
20260906013336 83 208 4.0 6.0 0.00 0.00 0.00 88 1009.7
20260906012832 83 227 2.0 5.0 0.00 0.00 0.00 88 1009.9
20260906012327 83 197 3.0 6.0 0.00 0.00 0.00 87 1010.0
20260906011826 83 199 3.0 3.0 0.00 0.00 0.00 87 1010.6
20260906011321 83 206 2.0 2.0 0.00 0.00 0.00 87 1010.7
20260906010817 83 337 0.0 2.0 0.00 0.00 0.00 87 1011.1
20260906010313 83 196 1.0 2.0 0.00 0.00 0.00 87 1010.8
20260906005808 83 214 0.0 2.0 0.00 0.00 0.00 87 1010.8
20260906005307 83 207 2.0 3.0 0.00 0.00 0.00 87 1011.2
20260906004806 83 282 1.0 2.0 0.00 0.00 0.00 86 1010.9
20260906004301 83 214 3.0 5.0 0.00 0.00 0.00 86 1010.8
20260906003756 83 193 2.0 5.0 0.00 0.00 0.00 86 1010.9
20260906003252 84 232 2.0 5.0 0.00 0.00 0.00 86 1011.2
20260906002747 84 209 3.0 6.0 0.00 0.00 0.00 86 1011.0
20260906002246 84 224 5.0 7.0 0.00 0.00 0.00 86 1011.1
20260906001742 84 175 2.0 2.0 0.00 0.00 0.00 86 1011.3
20260906001237 84 204 3.0 5.0 0.00 0.00 0.00 85 1011.3
20260906000732 84 236 1.0 2.0 0.00 0.00 0.00 85 1011.4
20260906000234 84 237 1.0 2.0 0.00 0.00 0.00 85 1011.4
20260905235733 84 197 4.0 6.0 0.00 0.00 0.00 85 1011.3
20260905235227 84 207 3.0 6.0 0.00 0.00 0.00 85 1011.2
20260905234723 84 220 5.0 7.0 0.00 0.00 0.00 85 1011.1
20260905234218 85 185 3.0 6.0 0.00 0.00 0.00 85 1011.2
20260905233713 85 230 1.0 3.0 0.00 0.00 0.00 85 1011.2
20260905233212 85 249 4.0 7.0 0.00 0.00 0.00 84 1011.4
20260905232707 85 194 0.0 8.0 0.00 0.00 0.00 84 1011.3
20260905232203 85 228 5.0 6.0 0.00 0.00 0.00 84 1011.1
20260905231658 86 212 7.0 9.0 0.00 0.00 0.00 84 1011.1
20260905231154 86 163 1.0 6.0 0.00 0.00 0.00 84 1011.1
20260905230650 86 222 1.0 7.0 0.00 0.00 0.00 83 1011.1
20260905230148 86 201 3.0 6.0 0.00 0.00 0.00 83 1011.0
20260905225647 86 211 5.0 7.0 0.00 0.00 0.00 83 1011.0
20260905225142 86 203 6.0 9.0 0.00 0.00 0.00 83 1011.1
20260905224641 87 197 3.0 5.0 0.00 0.00 0.00 83 1011.1
20260905224136 87 199 5.0 9.0 0.00 0.00 0.00 83 1011.0
20260905223633 87 225 7.0 8.0 0.00 0.00 0.00 83 1011.2
20260905223129 87 244 6.0 7.0 0.00 0.00 0.00 83 1010.7
20260905222624 87 196 6.0 8.0 0.00 0.00 0.00 82 1010.7
20260905222114 87 211 0.0 3.0 0.00 0.00 0.00 82 1010.7
20260905221609 87 206 4.0 10.0 0.00 0.00 0.00 82 1010.6
20260905221105 87 199 1.0 5.0 0.00 0.00 0.00 82 1010.8
20260905220600 87 195 1.0 9.0 0.00 0.00 0.00 82 1010.8
20260905220051 87 197 6.0 9.0 0.00 0.00 0.00 82 1010.7
20260905215550 87 214 6.0 9.0 0.00 0.00 0.00 82 1010.6
20260905215046 87 174 2.0 9.0 0.00 0.00 0.00 82 1010.8
20260905214542 87 183 5.0 9.0 0.00 0.00 0.00 82 1010.6
20260905214036 87 217 5.0 10.0 0.00 0.00 0.00 82 1010.6
20260905213532 87 207 5.0 10.0 0.00 0.00 0.00 81 1010.7
20260905213027 87 243 8.0 10.0 0.00 0.00 0.00 81 1010.7
20260905212522 88 212 4.0 11.0 0.00 0.00 0.00 81 1010.7
20260905212022 88 217 7.0 10.0 0.00 0.00 0.00 81 1010.7
20260905211517 88 189 5.0 10.0 0.00 0.00 0.00 81 1010.5
20260905211013 88 180 6.0 9.0 0.00 0.00 0.00 80 1010.3
20260905210509 88 189 9.0 14.0 0.00 0.00 0.00 80 1010.5
20260905210008 89 167 7.0 11.0 0.00 0.00 0.00 80 1010.4
20260905205503 89 233 6.0 10.0 0.00 0.00 0.00 80 1010.3
20260905205001 89 239 4.0 11.0 0.00 0.00 0.00 80 1010.6
20260905204457 89 215 5.0 8.0 0.00 0.00 0.00 79 1010.2
20260905203956 89 253 6.0 9.0 0.00 0.00 0.00 79 1010.3
20260905203452 89 194 6.0 9.0 0.00 0.00 0.00 79 1010.1
20260905202947 89 207 5.0 13.0 0.00 0.00 0.00 79 1010.1
20260905202442 89 189 7.0 10.0 0.00 0.00 0.00 79 1010.1
20260905201938 89 198 7.0 10.0 0.00 0.00 0.00 79 1010.2
20260905201433 89 239 4.0 9.0 0.00 0.00 0.00 79 1010.0
20260905200933 90 203 3.0 9.0 0.00 0.00 0.00 78 1010.2
20260905200429 90 211 9.0 11.0 0.00 0.00 0.00 78 1010.1
20260905195927 90 221 8.0 11.0 0.00 0.00 0.00 78 1010.1
20260905195422 90 222 2.0 7.0 0.00 0.00 0.00 78 1010.4
20260905194918 90 248 4.0 8.0 0.00 0.00 0.00 78 1010.2
20260905194417 90 229 6.0 8.0 0.00 0.00 0.00 78 1010.4
20260905193917 90 195 5.0 7.0 0.00 0.00 0.00 78 1010.4
20260905193412 90 235 2.0 5.0 0.00 0.00 0.00 78 1010.2
20260905192907 90 176 5.0 7.0 0.00 0.00 0.00 77 1010.6
20260905192403 91 224 2.0 10.0 0.00 0.00 0.00 78 1010.5
20260905191903 91 204 1.0 7.0 0.00 0.00 0.00 77 1010.8
20260905191402 91 258 2.0 7.0 0.00 0.00 0.00 77 1010.7
20260905190856 91 214 3.0 6.0 0.00 0.00 0.00 77 1010.9
20260905190354 91 228 3.0 5.0 0.00 0.00 0.00 76 1011.0
20260905185853 91 276 1.0 6.0 0.00 0.00 0.00 76 1011.0
20260905185349 91 247 0.0 3.0 0.00 0.00 0.00 76 1011.3
20260905184848 91 201 2.0 3.0 0.00 0.00 0.00 76 1011.4
20260905184347 91 251 3.0 5.0 0.00 0.00 0.00 76 1011.3
20260905183845 91 232 4.0 6.0 0.00 0.00 0.00 76 1011.6
20260905183341 91 235 3.0 7.0 0.00 0.00 0.00 76 1011.5
20260905182836 91 233 0.0 2.0 0.00 0.00 0.00 75 1011.5
20260905182335 91 221 2.0 2.0 0.00 0.00 0.00 76 1011.5
20260905181831 91 180 1.0 3.0 0.00 0.00 0.00 75 1011.7
20260905181330 91 201 6.0 7.0 0.00 0.00 0.00 75 1011.9
20260905180829 91 217 1.0 2.0 0.00 0.00 0.00 74 1011.8
20260905180325 91 219 4.0 6.0 0.00 0.00 0.00 74 1011.9
20260905175820 91 223 1.0 2.0 0.00 0.00 0.00 74 1012.0
20260905175320 91 232 1.0 2.0 0.00 0.00 0.00 74 1012.0
20260905174815 91 209 0.0 1.0 0.00 0.00 0.00 73 1012.2
20260905174311 92 225 2.0 2.0 0.00 0.00 0.00 73 1012.0
20260905173807 91 233 0.0 1.0 0.00 0.00 0.00 73 1012.2
20260905173303 91 230 1.0 2.0 0.00 0.00 0.00 73 1012.4
20260905172802 91 127 0.0 2.0 0.00 0.00 0.00 74 1012.4
20260905172301 91 227 0.0 2.0 0.00 0.00 0.00 74 1012.6
20260905171757 91 101 2.0 2.0 0.00 0.00 0.00 74 1012.8
20260905171253 91 215 2.0 3.0 0.00 0.00 0.00 74 1012.6
20260905170749 91 223 1.0 6.0 0.00 0.00 0.00 74 1012.6
20260905170245 91 204 1.0 1.0 0.00 0.00 0.00 74 1012.6
20260905165744 91 199 0.0 1.0 0.00 0.00 0.00 74 1012.8
20260905165240 91 215 0.0 7.0 0.00 0.00 0.00 75 1012.9
20260905164739 91 193 0.0 3.0 0.00 0.00 0.00 74 1013.1
20260905164235 91 258 0.0 6.0 0.00 0.00 0.00 74 1013.2
20260905163730 91 196 1.0 5.0 0.00 0.00 0.00 75 1013.2
20260905163227 90 166 0.0 3.0 0.00 0.00 0.00 76 1013.3
20260905162722 91 201 1.0 5.0 0.00 0.00 0.00 76 1013.2
20260905162222 91 203 1.0 2.0 0.00 0.00 0.00 76 1013.5
20260905161717 90 178 3.0 7.0 0.00 0.00 0.00 76 1013.7
20260905161215 90 188 3.0 6.0 0.00 0.00 0.00 77 1013.6
20260905160713 90 232 2.0 3.0 0.00 0.00 0.00 77 1013.7
20260905160208 90 202 0.0 2.0 0.00 0.00 0.00 78 1014.0
20260905155702 89 24 1.0 2.0 0.00 0.00 0.00 78 1013.8
20260905155202 90 224 1.0 1.0 0.00 0.00 0.00 78 1014.0
20260905154655 90 209 2.0 3.0 0.00 0.00 0.00 78 1013.8
20260905154151 90 187 2.0 5.0 0.00 0.00 0.00 79 1014.1
20260905153647 89 208 1.0 5.0 0.00 0.00 0.00 79 1014.0
20260905153142 89 170 1.0 2.0 0.00 0.00 0.00 80 1014.1
20260905152637 89 162 0.0 1.0 0.00 0.00 0.00 80 1014.0
20260905152131 89 190 1.0 1.0 0.00 0.00 0.00 80 1014.2
20260905151626 89 170 0.0 1.0 0.00 0.00 0.00 81 1014.0
20260905151122 88 165 0.0 3.0 0.00 0.00 0.00 82 1014.1
20260905150617 88 115 0.0 2.0 0.00 0.00 0.00 83 1014.1
20260905150116 88 161 1.0 2.0 0.00 0.00 0.00 84 1014.1
20260905145615 87 211 2.0 2.0 0.00 0.00 0.00 85 1014.3
20260905145114 86 234 2.0 3.0 0.00 0.00 0.00 86 1014.1
20260905144609 86 175 0.0 1.0 0.00 0.00 0.00 86 1014.2
20260905144108 86 115 1.0 2.0 0.00 0.00 0.00 86 1014.4
20260905143608 86 167 0.0 1.0 0.00 0.00 0.00 86 1014.1
20260905143103 87 156 1.0 2.0 0.00 0.00 0.00 86 1014.1
20260905142601 87 175 0.0 1.0 0.00 0.00 0.00 86 1014.2
20260905142055 86 190 1.0 3.0 0.00 0.00 0.00 87 1014.0
20260905141550 86 186 1.0 2.0 0.00 0.00 0.00 88 1014.0
20260905141047 86 138 0.0 1.0 0.00 0.00 0.00 88 1014.1
20260905140542 86 161 0.0 2.0 0.00 0.00 0.00 88 1014.2
20260905140041 86 149 0.0 2.0 0.00 0.00 0.00 88 1013.9
20260905135537 85 190 2.0 2.0 0.00 0.00 0.00 89 1014.1
20260905135036 85 186 0.0 1.0 0.00 0.00 0.00 90 1014.2
20260905134531 85 177 0.0 1.0 0.00 0.00 0.00 90 1014.1
20260905134030 85 118 0.0 1.0 0.00 0.00 0.00 90 1014.2
20260905133526 85 165 1.0 2.0 0.00 0.00 0.00 92 1014.0
20260905133025 84 197 1.0 1.0 0.00 0.00 0.00 93 1014.5
20260905132525 84 128 0.0 0.0 0.00 0.00 0.00 93 1014.3
20260905132020 84 152 0.0 1.0 0.00 0.00 0.00 93 1014.4
20260905131515 84 145 1.0 2.0 0.00 0.00 0.00 94 1014.2
20260905131010 83 119 1.0 2.0 0.00 0.00 0.00 95 1014.4
20260905130509 82 164 0.0 1.0 0.00 0.00 0.00 95 1014.4
20260905130004 82 112 0.0 1.0 0.00 0.00 0.00 96 1014.8
20260905125458 81 118 0.0 1.0 0.00 0.00 0.00 96 1014.5
20260905124954 81 140 0.0 1.0 0.00 0.00 0.00 96 1014.5
20260905124451 80 140 0.0 0.0 0.00 0.00 0.00 96 1014.3
20260905123946 80 139 0.0 2.0 0.00 0.00 0.00 96 1014.4
20260905123442 79 144 0.0 1.0 0.00 0.00 0.00 96 1014.1
20260905122937 79 133 0.0 0.0 0.00 0.00 0.00 95 1014.3
20260905122437 78 140 0.0 0.0 0.00 0.00 0.00 95 1014.2
20260905121932 78 139 0.0 0.0 0.00 0.00 0.00 95 1014.2
20260905121428 78 139 0.0 0.0 0.00 0.00 0.00 95 1014.2
20260905120926 78 140 0.0 0.0 0.00 0.00 0.00 95 1014.3
20260905120421 78 144 0.0 0.0 0.00 0.00 0.00 95 1014.1
20260905115917 77 148 0.0 0.0 0.00 0.00 0.00 95 1014.1
20260905115416 77 157 0.0 0.0 0.00 0.00 0.00 95 1014.2
20260905114911 77 159 0.0 0.0 0.00 0.00 0.00 95 1014.1
20260905114410 77 153 0.0 0.0 0.00 0.00 0.00 95 1014.2
20260905113909 77 189 0.0 0.0 0.00 0.00 0.00 94 1013.9
20260905113405 77 201 0.0 0.0 0.00 0.00 0.00 94 1013.9
20260905112900 77 203 0.0 0.0 0.00 0.00 0.00 94 1013.9
20260905112355 77 190 0.0 0.0 0.00 0.00 0.00 94 1013.9
20260905111850 77 204 0.0 0.0 0.00 0.00 0.00 94 1013.9
20260905111344 77 210 0.0 0.0 0.00 0.00 0.00 94 1013.6
20260905110844 77 211 0.0 0.0 0.00 0.00 0.00 94 1013.8
20260905110338 77 212 0.0 0.0 0.00 0.00 0.00 94 1013.8
20260905105833 77 190 0.0 0.0 0.00 0.00 0.00 94 1013.6
20260905105333 77 190 0.0 0.0 0.00 0.00 0.00 94 1013.7
20260905104827 77 180 0.0 0.0 0.00 0.00 0.00 94 1013.7
20260905104324 77 190 0.0 0.0 0.00 0.00 0.00 94 1013.7
20260905103823 77 189 0.0 0.0 0.00 0.00 0.00 94 1013.8
20260905103319 77 190 0.0 0.0 0.00 0.00 0.00 94 1013.9
20260905102814 77 201 0.0 0.0 0.00 0.00 0.00 94 1013.9
20260905102311 77 202 0.0 0.0 0.00 0.00 0.00 94 1013.9
20260905101810 77 199 0.0 0.0 0.00 0.00 0.00 94 1014.0
20260905101309 77 196 0.0 0.0 0.00 0.00 0.00 94 1013.7
20260905100803 77 200 0.0 0.0 0.00 0.00 0.00 94 1013.7
20260905100259 77 201 0.0 0.0 0.00 0.00 0.00 94 1013.6
20260905095758 77 204 0.0 0.0 0.00 0.00 0.00 94 1013.7
20260905095253 77 181 0.0 0.0 0.00 0.00 0.00 94 1013.6
20260905094748 77 204 0.0 0.0 0.00 0.00 0.00 94 1013.5
20260905094243 78 204 0.0 0.0 0.00 0.00 0.00 94 1013.6
20260905093742 78 204 0.0 0.0 0.00 0.00 0.00 94 1013.5
20260905093238 78 204 0.0 0.0 0.00 0.00 0.00 94 1013.3
20260905092733 78 203 0.0 0.0 0.00 0.00 0.00 94 1013.5
20260905092229 78 204 0.0 0.0 0.00 0.00 0.00 94 1013.4
20260905091729 78 204 0.0 0.0 0.00 0.00 0.00 94 1013.4
20260905091223 78 204 0.0 0.0 0.00 0.00 0.00 94 1013.4
20260905090723 78 200 0.0 0.0 0.00 0.00 0.00 94 1013.5
20260905090219 78 196 0.0 0.0 0.00 0.00 0.00 94 1013.4
20260905085717 78 196 0.0 0.0 0.00 0.00 0.00 94 1013.6
20260905085212 78 199 0.0 0.0 0.00 0.00 0.00 93 1013.4
20260905084707 78 201 0.0 0.0 0.00 0.00 0.00 93 1013.4
20260905084206 78 206 0.0 0.0 0.00 0.00 0.00 93 1013.3